Abilene, TX

10:55 PM CDT on May 22, 2017 (GMT -0500)
Abilene Regional

Weather History for KABI - February, 2012

Change the Weather History Date:

Tuesday, February 21, 2012

  Actual Average Record
Temperature  
Mean Temperature 54 °F 50 °F  
Max Temperature 72 °F 62 °F 92 °F (1996)
Min Temperature 36 °F 38 °F 15 °F (1939)
Degree Days  
Heating Degree Days 11 15  
Month to date heating degree days 354 364  
Since 1 July heating degree days 1854 2033  
Cooling Degree Days 0 0  
Month to date cooling degree days 0 0  
Year to date cooling degree days 0 1  
Growing Degree Days 4 (Base 50)    
Moisture  
Dew Point 32 °F    
Average Humidity 42    
Maximum Humidity 64    
Minimum Humidity 19    
Precipitation  
Precipitation 0.00 in 0.05 in 0.75 in (1994)
Month to date precipitation 1.70 1.00  
Year to date precipitation 4.47 2.02  
Sea Level Pressure  
Sea Level Pressure 30.01 in    
Wind  
Wind Speed 13 mph (SSW)    
Max Wind Speed 32 mph    
Max Gust Speed 38 mph    
Visibility 10 miles    
Events      
T = Trace of Precipitation, MM = Missing Value Source: NWS Daily Summary

Daily Weather History Graph

Daily Weather History Graph

Search for Another Location

Airport or City:

Trip Planner

Search our weather history database for the weather conditions in past years. The results will help you decide how hot, cold, wet, or windy it might be!

Date:

Astronomy

Feb. 21, 2012 Rise Set
Actual Time 7:15 AM CST 6:29 PM CST
Civil Twilight 6:50 AM CST 6:54 PM CST
Nautical Twilight 6:22 AM CST 7:22 PM CST
Astronomical Twilight 5:53 AM CST 7:51 PM CST
Moon 6:47 AM CST (2/21) 6:34 PM CST (2/21)
Length of Visible Light 12h 03m
Length of Day
11h 13m
Waning Crescent, 0% of the Moon is Illuminated
Feb 21
Waning Crescent
Feb 21
New
Feb 29
First Quarter
Mar 8
Full
Mar 14
Last Quarter

Hourly Weather History & Observations

Time (CST) Temp. Windchill Dew Point Humidity Pressure Visibility Wind Dir Wind Speed Gust Speed Precip Events Conditions
12:52 AM 37.9 °F 31.5 °F 26.1 °F 62% 30.11 in 10.0 mi South 9.2 mph - N/A   Clear
1:52 AM 37.0 °F 31.6 °F 25.0 °F 62% 30.11 in 10.0 mi South 6.9 mph - N/A   Clear
2:52 AM 37.0 °F 31.6 °F 24.1 °F 59% 30.09 in 10.0 mi South 6.9 mph - N/A   Clear
3:52 AM 37.9 °F 32.1 °F 21.9 °F 53% 30.08 in 10.0 mi SSE 8.1 mph - N/A   Clear
4:52 AM 37.0 °F 31.6 °F 21.0 °F 52% 30.08 in 10.0 mi South 6.9 mph - N/A   Clear
5:52 AM 37.9 °F 30.9 °F 21.9 °F 53% 30.09 in 10.0 mi South 10.4 mph - N/A   Clear
6:52 AM 39.9 °F 34.5 °F 19.9 °F 45% 30.11 in 10.0 mi South 8.1 mph - N/A   Clear
7:52 AM 42.1 °F 37.1 °F 21.0 °F 43% 30.12 in 10.0 mi South 8.1 mph - N/A   Clear
8:52 AM 48.0 °F - 25.0 °F 41% 30.13 in 10.0 mi South 4.6 mph - N/A   Clear
9:52 AM 55.9 °F - 19.0 °F 24% 30.12 in 10.0 mi SSW 16.1 mph - N/A   Clear
10:52 AM 59.0 °F - 19.0 °F 21% 30.11 in 10.0 mi SSW 19.6 mph - N/A   Clear
11:52 AM 63.0 °F - 19.9 °F 19% 30.09 in 10.0 mi South 17.3 mph 25.3 mph N/A   Clear
12:52 PM 64.9 °F - 35.1 °F 33% 30.03 in 10.0 mi SSW 23.0 mph 32.2 mph N/A   Clear
1:52 PM 68.0 °F - 41.0 °F 37% 29.99 in 10.0 mi SSW 26.5 mph 38.0 mph N/A   Clear
2:52 PM 70.0 °F - 43.0 °F 38% 29.96 in 10.0 mi SSW 21.9 mph 31.1 mph N/A   Clear
3:52 PM 71.1 °F - 46.0 °F 41% 29.93 in 10.0 mi SSW 18.4 mph 27.6 mph N/A   Clear
4:52 PM 71.1 °F - 44.1 °F 38% 29.92 in 10.0 mi SSW 20.7 mph 27.6 mph N/A   Clear
5:52 PM 70.0 °F - 44.1 °F 39% 29.91 in 10.0 mi SSW 16.1 mph 23.0 mph N/A   Clear
6:52 PM 64.0 °F - 45.0 °F 50% 29.91 in 10.0 mi SSW 8.1 mph - N/A   Clear
7:52 PM 59.0 °F - 44.1 °F 58% 29.90 in 10.0 mi SSW 9.2 mph - N/A   Clear
8:52 PM 59.0 °F - 42.1 °F 53% 29.88 in 10.0 mi SSW 12.7 mph - N/A   Clear
9:52 PM 57.9 °F - 39.0 °F 49% 29.89 in 10.0 mi SW 8.1 mph - N/A   Clear
10:52 PM 57.0 °F - 37.9 °F 49% 29.89 in 10.0 mi SSW 10.4 mph - N/A   Clear
11:52 PM 55.9 °F - 37.9 °F 51% 29.88 in 10.0 mi SSW 11.5 mph - N/A   Clear